Weather History for Wausau, WI

Change the Weather History Date:

Thursday, December 13, 2012

  Actual Average Record
Temperature  
Mean Temperature 29 °F 19 °F  
Max Temperature 37 °F 27 °F 49 °F (1998)
Min Temperature 21 °F 12 °F -24 °F (1903)
Degree Days  
Heating Degree Days 36 46  
Month to date heating degree days 446 562  
Since 1 July heating degree days 2215 2421  
Cooling Degree Days 0 0  
Month to date cooling degree days 0 0  
Year to date cooling degree days 725 407  
Moisture  
Dew Point 20 °F    
Average Humidity 66    
Maximum Humidity 84    
Minimum Humidity 48    
Precipitation  
Precipitation 0.00 in 0.05 in 0.62 in (1995)
Month to date precipitation 0.37 0.63  
Year to date precipitation 28.22 31.68  
Snow  
Snow 0.00 in 0.50 in 5.10 in (1995)
Month to date snowfall 5.4 5.8  
Since 1 July snowfall 7.7 14.1  
Snow Depth 3.00 in    
Sea Level Pressure  
Sea Level Pressure 30.06 in    
Wind  
Wind Speed 6 mph (SSW)    
Max Wind Speed 17 mph    
Max Gust Speed 23 mph    
Visibility 10 miles    
Events      
T = Trace of Precipitation, MM = Missing Value Source: NWS Daily Summary

Daily Weather History Graph

Daily Weather History Graph

Search for Another Location

Airport:

Trip Planner

Search our weather history database for the weather conditions in past years. The results will help you decide how hot, cold, wet, or windy it might be!

Date:

Astronomy

Dec. 13, 2012 Rise Set
Actual Time 7:28 AM CST 4:17 PM CST
Civil Twilight 6:54 AM CST 4:51 PM CST
Nautical Twilight 6:17 AM CST 5:28 PM CST
Astronomical Twilight 5:42 AM CST 6:03 PM CST
Moon 7:36 AM CST (12/13) 5:01 PM CST (12/13)
Length of Visible Light 9h 56m
Length of Day
8h 48m
New Moon, 0% of the Moon is Illuminated
Dec 13
New Moon
Dec 19
First Quarter
Dec 28
Full
Jan 4
Last Quarter
Jan 11
New

Hourly Weather History & Observations

Time (CST) Temp. Windchill Dew Point Humidity Pressure Visibility Wind Dir Wind Speed Gust Speed Precip Events Conditions
12:54 AM 35.1 °F 27.4 °F 23.0 °F 61% 30.07 in 10.0 mi South 10.4 mph - N/A   Clear
1:54 AM 36.0 °F 27.1 °F 21.9 °F 57% 30.06 in 10.0 mi SSW 13.8 mph 21.9 mph N/A   Partly Cloudy
2:54 AM 35.1 °F 25.9 °F 21.0 °F 57% 30.06 in 10.0 mi South 13.8 mph - N/A   Clear
3:54 AM 34.0 °F 26.0 °F 21.0 °F 59% 30.05 in 10.0 mi SSW 10.4 mph 19.6 mph N/A   Clear
4:54 AM 33.1 °F 24.9 °F 19.9 °F 59% 30.04 in 10.0 mi South 10.4 mph - N/A   Clear
5:54 AM 32.0 °F 24.8 °F 19.9 °F 61% 30.04 in 10.0 mi South 8.1 mph - N/A   Clear
6:54 AM 32.0 °F 26.4 °F 19.9 °F 61% 30.04 in 10.0 mi South 5.8 mph - N/A   Clear
7:54 AM 30.0 °F 23.2 °F 19.0 °F 64% 30.04 in 10.0 mi South 6.9 mph - N/A   Clear
8:54 AM 32.0 °F 27.5 °F 19.9 °F 61% 30.04 in 10.0 mi Variable 4.6 mph - N/A   Clear
9:54 AM 33.1 °F 24.9 °F 19.0 °F 56% 30.05 in 10.0 mi SSW 10.4 mph - N/A   Clear
10:54 AM 34.0 °F 26.6 °F 19.9 °F 56% 30.04 in 10.0 mi South 9.2 mph - N/A   Clear
11:54 AM 36.0 °F 30.3 °F 19.9 °F 52% 30.02 in 10.0 mi SSW 6.9 mph - N/A   Clear
12:54 PM 36.0 °F 30.3 °F 19.9 °F 52% 30.02 in 10.0 mi SSW 6.9 mph - N/A   Clear
1:54 PM 37.0 °F 31.0 °F 19.9 °F 50% 30.02 in 10.0 mi WSW 8.1 mph - N/A   Clear
2:54 PM 37.0 °F 31.0 °F 19.9 °F 50% 30.02 in 10.0 mi West 8.1 mph - N/A   Clear
3:54 PM 33.1 °F 26.9 °F 19.0 °F 56% 30.04 in 10.0 mi West 6.9 mph - N/A   Clear
7:54 PM 26.1 °F - 19.0 °F 75% 30.11 in 10.0 mi Calm Calm - N/A   Clear
8:54 PM 25.0 °F - 19.0 °F 78% 30.11 in 4.0 mi Calm Calm - N/A   Haze
9:54 PM 25.0 °F - 18.0 °F 75% 30.12 in 10.0 mi Calm Calm - N/A   Clear
10:54 PM 21.9 °F - 17.1 °F 82% 30.15 in 8.0 mi Calm Calm - N/A   Clear